Torna al catalogo

FENGYUN 1C DEB

AttivoSSO
NORAD 33747·DEBRIS·🇨🇳 China

Lanciato May 10, 1999 da Taiyuan Satellite Launch Center

Loading…

Prossimi Passaggi (prossime 24 ore)

TLE

AggiornatoSource: Space-Track

Epoca: Sep 11, 2026, 17:52 UTC

1 33747U 99025DJL 26254.74467705  .00003076  00000-0  14260-2 0  9999
2 33747  99.0968   1.2847 0088712 163.2178 197.1965 14.19440747940038

Traccia FENGYUN 1C DEB in tempo reale con AllMySat

Download on the App Store